Milton, FL

5:23 AM CST on January 21, 2018 (GMT -0600)
Whiting Field Naval Air Station (South)

Weather History for KNDZ - December, 2013

Change the Weather History Date:

Saturday, December 7, 2013

  Actual Average (KNSE) Record (KNSE)
Temperature  
Mean Temperature 54 °F -  
Max Temperature 61 °F 62 °F 77 °F (1998)
Min Temperature 46 °F 45 °F 27 °F (1997)
Degree Days  
Heating Degree Days 12    
Growing Degree Days 4 (Base 50)    
Moisture  
Dew Point 46 °F    
Average Humidity 86    
Maximum Humidity 93    
Minimum Humidity 77    
Precipitation  
Precipitation 0.00 in - - ()
Sea Level Pressure  
Sea Level Pressure 30.18 in    
Wind  
Wind Speed 11 mph (North)    
Max Wind Speed 16 mph    
Max Gust Speed -    
Visibility 9 miles    
Events      
Averages and records for this station are not official NWS values.
T = Trace of Precipitation, MM = Missing Value Source: NWS Daily Summary

Daily Weather History Graph

Daily Weather History Graph

Search for Another Location

Airport or City:

Trip Planner

Search our weather history database for the weather conditions in past years. The results will help you decide how hot, cold, wet, or windy it might be!

Date:

Astronomy

Dec. 07, 2013 Rise Set
Actual Time 6:32 AM CST 4:46 PM CST
Civil Twilight 6:06 AM CST 5:13 PM CST
Nautical Twilight 5:36 AM CST 5:42 PM CST
Astronomical Twilight 5:06 AM CST 6:12 PM CST
Moon 10:31 AM CST (12/7) 10:11 PM CST (12/7)
Length of Visible Light 11h 06m
Length of Day
10h 13m
Waxing Crescent, 29% of the Moon is Illuminated
Dec 7
Waxing Crescent
Dec 9
First Quarter
Dec 17
Full
Dec 25
Last Quarter
Jan 1
New

Hourly Weather History & Observations

Time (CST) Temp. Dew Point Humidity Pressure Visibility Wind Dir Wind Speed Gust Speed Precip Events Conditions
12:05 AM 61.0 °F 57.0 °F 87% 30.13 in 10.0 mi NNW 9.2 mph - N/A   Overcast
12:35 AM 60.1 °F 55.9 °F 86% 30.13 in 10.0 mi NNW 9.2 mph - 0.00 in   Overcast
12:54 AM 59.0 °F 55.4 °F 88% 30.14 in 10.0 mi NNW 8.1 mph - 0.00 in   Overcast
12:56 AM 59.0 °F 55.0 °F 87% 30.10 in 10.0 mi NNW 9.2 mph - 0.00 in   Overcast
1:05 AM 59.0 °F 55.0 °F 87% 30.14 in 10.0 mi NNW 11.5 mph - N/A   Overcast
1:28 AM 57.0 °F 54.0 °F 89% 30.15 in 10.0 mi NNW 11.5 mph - N/A   Overcast
1:56 AM 55.0 °F 52.0 °F 89% 30.12 in 10.0 mi NNW 15.0 mph - N/A   Overcast
2:07 AM 54.0 °F 51.1 °F 90% 30.16 in 10.0 mi North 11.5 mph - N/A   Overcast
2:56 AM 51.1 °F 48.0 °F 89% 30.12 in 10.0 mi NNW 13.8 mph - N/A   Overcast
3:51 AM 50.0 °F 46.4 °F 87% 30.17 in 10.0 mi North 11.5 mph - N/A   Overcast
3:56 AM 50.0 °F 46.9 °F 89% 30.14 in 10.0 mi North 13.8 mph - N/A   Overcast
4:56 AM 48.9 °F 45.0 °F 86% 30.15 in 10.0 mi North 11.5 mph - N/A   Overcast
5:56 AM 46.9 °F 43.0 °F 86% 30.19 in 10.0 mi North 13.8 mph - N/A   Overcast
6:07 AM - - N/A% - - North - - N/A   Unknown
6:56 AM 46.9 °F 43.0 °F 86% 30.20 in 10.0 mi North 15.0 mph - N/A   Overcast
7:56 AM 46.9 °F 42.1 °F 83% 30.22 in 10.0 mi North 12.7 mph - N/A   Overcast
8:56 AM 46.9 °F 42.1 °F 83% 30.24 in 10.0 mi North 16.1 mph - N/A   Overcast
9:56 AM 48.9 °F 43.0 °F 80% 30.24 in 10.0 mi North 11.5 mph - N/A   Overcast
10:56 AM 48.9 °F 42.1 °F 77% 30.24 in 10.0 mi North 15.0 mph - N/A   Overcast
11:56 AM 48.0 °F 43.0 °F 83% 30.22 in 10.0 mi North 15.0 mph - N/A   Overcast
12:56 PM 48.0 °F 43.0 °F 83% 30.20 in 10.0 mi North 12.7 mph - N/A   Overcast
1:56 PM 48.0 °F 43.0 °F 83% 30.19 in 10.0 mi North 15.0 mph - N/A   Overcast
2:56 PM 48.0 °F 43.0 °F 83% 30.19 in 10.0 mi NNE 11.5 mph - N/A   Overcast
3:56 PM 48.0 °F 43.0 °F 83% 30.19 in 10.0 mi NNE 12.7 mph - N/A   Overcast
4:00 PM - - N/A% - - North - - N/A   Unknown
4:56 PM 46.9 °F 43.0 °F 86% 30.20 in 10.0 mi North 8.1 mph - N/A   Overcast
5:56 PM 46.9 °F 43.0 °F 86% 30.20 in 10.0 mi North 10.4 mph - N/A   Overcast
6:56 PM 46.9 °F 43.0 °F 86% 30.21 in 10.0 mi NNE 10.4 mph - N/A   Overcast
7:56 PM 46.9 °F 43.0 °F 86% 30.22 in 10.0 mi North 9.2 mph - N/A   Overcast
8:49 PM 46.9 °F 44.1 °F 90% 30.23 in 7.0 mi NNE 8.1 mph - N/A   Overcast
8:56 PM 46.9 °F 44.1 °F 90% 30.21 in 7.0 mi NNE 6.9 mph - N/A   Overcast
9:56 PM 46.9 °F 44.1 °F 90% 30.21 in 9.0 mi NNE 8.1 mph - N/A   Overcast
10:56 PM 46.9 °F 45.0 °F 93% 30.21 in 6.0 mi NNE 6.9 mph - N/A   Overcast
11:38 PM 46.9 °F 45.0 °F 93% 30.23 in 2.5 mi NNE 8.1 mph - N/A   Overcast
11:56 PM 48.0 °F 45.0 °F 89% 30.19 in 2.5 mi NNE 6.9 mph - N/A   Overcast